| time (UTC) | temp F | wind direction | speed MPH | gust MPH | rain 1hr in | rain 24hr in | rain mn in | humidity % | barometer mb |
| 20260903102804 | 65 | 117 | 1.0 | 1.0 | 0.00 | 0.00 | 0.00 | 75 | 1021.8 |
| 20260903102306 | 65 | 117 | 1.0 | 2.0 | 0.00 | 0.00 | 0.00 | 75 | 1021.8 |
| 20260903101805 | 65 | 117 | 1.0 | 2.0 | 0.00 | 0.00 | 0.00 | 73 | 1021.7 |
| 20260903101305 | 66 | 117 | 1.0 | 3.0 | 0.00 | 0.00 | 0.00 | 73 | 1021.7 |
| 20260903100804 | 66 | 117 | 2.0 | 3.0 | 0.00 | 0.00 | 0.00 | 72 | 1021.6 |
| 20260903100304 | 66 | 117 | 2.0 | 3.0 | 0.00 | 0.00 | 0.00 | 71 | 1021.6 |
| 20260903095804 | 66 | 116 | 0.0 | 0.0 | 0.00 | 0.00 | 0.00 | 70 | 1021.6 |
| 20260903095306 | 66 | 116 | 0.0 | 0.0 | 0.00 | 0.00 | 0.00 | 71 | 1021.5 |
| 20260903094805 | 67 | 116 | 1.0 | 3.0 | 0.00 | 0.00 | 0.00 | 70 | 1021.4 |
| 20260903094304 | 67 | 116 | 1.0 | 3.0 | 0.00 | 0.00 | 0.00 | 70 | 1021.4 |
| 20260903093805 | 67 | 116 | 2.0 | 3.0 | 0.00 | 0.00 | 0.00 | 69 | 1021.3 |
| 20260903092804 | 67 | 117 | 2.0 | 6.0 | 0.00 | 0.00 | 0.00 | 68 | 1021.2 |
| 20260903092306 | 68 | 117 | 3.0 | 7.0 | 0.00 | 0.00 | 0.00 | 67 | 1021.1 |
| 20260903091805 | 68 | 117 | 2.0 | 7.0 | 0.00 | 0.00 | 0.00 | 67 | 1021.1 |
| 20260903091304 | 68 | 117 | 2.0 | 6.0 | 0.00 | 0.00 | 0.00 | 66 | 1021.1 |
| 20260903090805 | 68 | 117 | 3.0 | 8.0 | 0.00 | 0.00 | 0.00 | 66 | 1021.0 |
| 20260903090305 | 69 | 117 | 3.0 | 6.0 | 0.00 | 0.00 | 0.00 | 64 | 1021.0 |
| 20260903085306 | 69 | 119 | 2.0 | 3.0 | 0.00 | 0.00 | 0.00 | 62 | 1021.0 |
| 20260903084804 | 69 | 119 | 3.0 | 7.0 | 0.00 | 0.00 | 0.00 | 61 | 1020.9 |
| 20260903084305 | 70 | 123 | 3.0 | 5.0 | 0.00 | 0.00 | 0.00 | 59 | 1020.8 |
| 20260903083804 | 70 | 128 | 3.0 | 8.0 | 0.00 | 0.00 | 0.00 | 58 | 1020.7 |
| 20260903083304 | 70 | 136 | 4.0 | 9.0 | 0.00 | 0.00 | 0.00 | 58 | 1020.7 |
| 20260903082306 | 71 | 143 | 7.0 | 13.0 | 0.00 | 0.00 | 0.00 | 56 | 1020.6 |
| 20260903081805 | 71 | 136 | 6.0 | 12.0 | 0.00 | 0.00 | 0.00 | 56 | 1020.5 |
| 20260903081305 | 72 | 127 | 5.0 | 12.0 | 0.00 | 0.00 | 0.00 | 55 | 1020.5 |
| 20260903080805 | 72 | 113 | 6.0 | 12.0 | 0.00 | 0.00 | 0.00 | 54 | 1020.5 |
| 20260903080305 | 73 | 125 | 6.0 | 10.0 | 0.00 | 0.00 | 0.00 | 54 | 1020.4 |
| 20260903075805 | 73 | 120 | 6.0 | 12.0 | 0.00 | 0.00 | 0.00 | 52 | 1020.4 |
| 20260903075306 | 73 | 89 | 4.0 | 9.0 | 0.00 | 0.00 | 0.00 | 52 | 1020.3 |
| 20260903074804 | 73 | 120 | 5.0 | 9.0 | 0.00 | 0.00 | 0.00 | 56 | 1020.3 |
| 20260903074304 | 74 | 118 | 6.0 | 12.0 | 0.00 | 0.00 | 0.00 | 58 | 1020.3 |
| 20260903073804 | 74 | 79 | 6.0 | 9.0 | 0.00 | 0.00 | 0.00 | 63 | 1020.3 |
| 20260903072806 | 75 | 50 | 5.0 | 10.0 | 0.00 | 0.00 | 0.00 | 64 | 1020.1 |
| 20260903072306 | 76 | 94 | 7.0 | 12.0 | 0.00 | 0.00 | 0.00 | 60 | 1020.1 |
| 20260903071805 | 76 | 101 | 7.0 | 12.0 | 0.00 | 0.00 | 0.00 | 59 | 1020.0 |
| 20260903071304 | 76 | 93 | 7.0 | 12.0 | 0.00 | 0.00 | 0.00 | 58 | 1020.0 |
| 20260903070304 | 77 | 87 | 8.0 | 12.0 | 0.00 | 0.00 | 0.00 | 57 | 1020.0 |
| 20260903065804 | 78 | 111 | 7.0 | 12.0 | 0.00 | 0.00 | 0.00 | 57 | 1019.9 |
| 20260903065306 | 78 | 111 | 4.0 | 12.0 | 0.00 | 0.00 | 0.00 | 56 | 1019.9 |
| 20260903064804 | 79 | 85 | 5.0 | 10.0 | 0.00 | 0.00 | 0.00 | 54 | 1019.9 |
| 20260903063804 | 80 | 101 | 6.0 | 10.0 | 0.00 | 0.00 | 0.00 | 46 | 1019.8 |
| 20260903063304 | 80 | 101 | 2.0 | 12.0 | 0.00 | 0.00 | 0.00 | 46 | 1019.7 |
| 20260903062804 | 80 | 150 | 7.0 | 12.0 | 0.00 | 0.00 | 0.00 | 46 | 1019.7 |
| 20260903061805 | 80 | 77 | 5.0 | 9.0 | 0.00 | 0.00 | 0.00 | 45 | 1019.7 |
| 20260903061304 | 81 | 112 | 6.0 | 9.0 | 0.00 | 0.00 | 0.00 | 44 | 1019.7 |
| 20260903060304 | 81 | 145 | 6.0 | 10.0 | 0.00 | 0.00 | 0.00 | 45 | 1019.7 |
| 20260903055804 | 81 | 132 | 5.0 | 12.0 | 0.00 | 0.00 | 0.00 | 45 | 1019.6 |
| 20260903055306 | 82 | 130 | 7.0 | 12.0 | 0.00 | 0.00 | 0.00 | 44 | 1019.6 |
| 20260903054804 | 81 | 136 | 1.0 | 8.0 | 0.00 | 0.00 | 0.00 | 45 | 1019.6 |
| 20260903053805 | 80 | 166 | 6.0 | 12.0 | 0.00 | 0.00 | 0.00 | 46 | 1019.6 |
| 20260903053305 | 81 | 87 | 5.0 | 12.0 | 0.00 | 0.00 | 0.00 | 47 | 1019.6 |
| 20260903052804 | 81 | 161 | 7.0 | 13.0 | 0.00 | 0.00 | 0.00 | 47 | 1019.7 |
| 20260903052307 | 80 | 172 | 9.0 | 14.0 | 0.00 | 0.00 | 0.00 | 47 | 1019.6 |
| 20260903051804 | 81 | 99 | 8.0 | 13.0 | 0.00 | 0.00 | 0.00 | 46 | 1019.7 |
| 20260903051304 | 81 | 142 | 5.0 | 7.0 | 0.00 | 0.00 | 0.00 | 47 | 1019.7 |
| 20260903050804 | 81 | 130 | 3.0 | 17.0 | 0.00 | 0.00 | 0.00 | 48 | 1019.8 |
| 20260903050305 | 81 | 166 | 5.0 | 13.0 | 0.00 | 0.00 | 0.00 | 47 | 1019.7 |
| 20260903045805 | 81 | 143 | 6.0 | 10.0 | 0.00 | 0.00 | 0.00 | 48 | 1019.8 |
| 20260903045306 | 81 | 178 | 7.0 | 12.0 | 0.00 | 0.00 | 0.00 | 48 | 1019.8 |
| 20260903044805 | 81 | 137 | 6.0 | 10.0 | 0.00 | 0.00 | 0.00 | 48 | 1019.9 |
| 20260903044305 | 80 | 169 | 4.0 | 13.0 | 0.00 | 0.00 | 0.00 | 51 | 1019.9 |
| 20260903043804 | 79 | 165 | 5.0 | 9.0 | 0.00 | 0.00 | 0.00 | 52 | 1019.9 |
| 20260903043304 | 79 | 134 | 7.0 | 16.0 | 0.00 | 0.00 | 0.00 | 53 | 1020.0 |
| 20260903042805 | 79 | 101 | 6.0 | 12.0 | 0.00 | 0.00 | 0.00 | 53 | 1020.0 |
| 20260903041304 | 80 | 111 | 6.0 | 10.0 | 0.00 | 0.00 | 0.00 | 53 | 1020.3 |
| 20260903040804 | 80 | 140 | 6.0 | 9.0 | 0.00 | 0.00 | 0.00 | 53 | 1020.3 |
| 20260903040304 | 80 | 94 | 5.0 | 9.0 | 0.00 | 0.00 | 0.00 | 52 | 1020.4 |
| 20260903035306 | 80 | 132 | 5.0 | 9.0 | 0.00 | 0.00 | 0.00 | 54 | 1020.5 |
| 20260903034305 | 80 | 42 | 6.0 | 12.0 | 0.00 | 0.00 | 0.00 | 52 | 1020.6 |
| 20260903033804 | 80 | 127 | 6.0 | 9.0 | 0.00 | 0.00 | 0.00 | 54 | 1020.7 |
| 20260903033304 | 80 | 173 | 5.0 | 10.0 | 0.00 | 0.00 | 0.00 | 54 | 1020.9 |
| 20260903032804 | 80 | 60 | 4.0 | 8.0 | 0.00 | 0.00 | 0.00 | 54 | 1020.9 |
| 20260903032306 | 78 | 117 | 3.0 | 8.0 | 0.00 | 0.00 | 0.00 | 55 | 1021.1 |
| 20260903031804 | 78 | 88 | 7.0 | 10.0 | 0.00 | 0.00 | 0.00 | 55 | 1021.1 |
| 20260903031304 | 78 | 60 | 9.0 | 12.0 | 0.00 | 0.00 | 0.00 | 55 | 1021.2 |
| 20260903030804 | 78 | 124 | 6.0 | 12.0 | 0.00 | 0.00 | 0.00 | 56 | 1021.3 |
| 20260903030304 | 78 | 94 | 6.0 | 12.0 | 0.00 | 0.00 | 0.00 | 55 | 1021.4 |
| 20260903025804 | 78 | 92 | 8.0 | 12.0 | 0.00 | 0.00 | 0.00 | 55 | 1021.5 |
| 20260903025306 | 78 | 24 | 5.0 | 12.0 | 0.00 | 0.00 | 0.00 | 55 | 1021.5 |
| 20260903024804 | 78 | 87 | 9.0 | 14.0 | 0.00 | 0.00 | 0.00 | 56 | 1021.7 |
| 20260903024305 | 78 | 61 | 3.0 | 9.0 | 0.00 | 0.00 | 0.00 | 56 | 1021.7 |
| 20260903023804 | 77 | 101 | 4.0 | 9.0 | 0.00 | 0.00 | 0.00 | 57 | 1021.7 |
| 20260903023304 | 77 | 109 | 9.0 | 12.0 | 0.00 | 0.00 | 0.00 | 56 | 1021.9 |
| 20260903022805 | 78 | 101 | 6.0 | 12.0 | 0.00 | 0.00 | 0.00 | 55 | 1021.9 |
| 20260903022306 | 78 | 75 | 3.0 | 10.0 | 0.00 | 0.00 | 0.00 | 55 | 1021.9 |
| 20260903021305 | 77 | 104 | 9.0 | 12.0 | 0.00 | 0.00 | 0.00 | 55 | 1022.1 |
| 20260903020805 | 78 | 134 | 7.0 | 12.0 | 0.00 | 0.00 | 0.00 | 55 | 1022.2 |
| 20260903020305 | 79 | 47 | 6.0 | 13.0 | 0.00 | 0.00 | 0.00 | 55 | 1022.3 |
| 20260903015306 | 78 | 77 | 6.0 | 12.0 | 0.00 | 0.00 | 0.00 | 57 | 1022.5 |
| 20260903014805 | 77 | 49 | 8.0 | 13.0 | 0.00 | 0.00 | 0.00 | 57 | 1022.7 |
| 20260903014304 | 77 | 68 | 10.0 | 13.0 | 0.00 | 0.00 | 0.00 | 59 | 1022.8 |
| 20260903013804 | 77 | 91 | 5.0 | 12.0 | 0.00 | 0.00 | 0.00 | 59 | 1022.9 |
| 20260903013305 | 77 | 41 | 6.0 | 12.0 | 0.00 | 0.00 | 0.00 | 57 | 1023.1 |
| 20260903012804 | 77 | 55 | 5.0 | 10.0 | 0.00 | 0.00 | 0.00 | 58 | 1023.2 |
| 20260903010304 | 76 | 25 | 6.0 | 12.0 | 0.00 | 0.00 | 0.00 | 59 | 1023.7 |
| 20260903005306 | 75 | 95 | 9.0 | 15.0 | 0.00 | 0.00 | 0.00 | 60 | 1023.8 |
| 20260903004804 | 75 | 90 | 3.0 | 9.0 | 0.00 | 0.00 | 0.00 | 61 | 1024.0 |
| 20260903004305 | 59 | 8 | 0.0 | 5.0 | 0.00 | 0.00 | 0.00 | 86 | 1024.0 |
| 20260903003305 | 59 | 3 | 0.0 | 0.0 | 0.00 | 0.00 | 0.00 | 86 | 1024.0 |
| 20260903001804 | 59 | 3 | 0.0 | 0.0 | 0.00 | 0.00 | 0.00 | 86 | 1024.1 |
| 20260903001305 | 59 | 3 | 0.0 | 0.0 | 0.00 | 0.00 | 0.00 | 86 | 1024.2 |
| 20260903000804 | 59 | 1 | 0.0 | 0.0 | 0.00 | 0.00 | 0.00 | 86 | 1024.2 |
| 20260902235804 | 59 | 3 | 0.0 | 0.0 | 0.00 | 0.00 | 0.00 | 86 | 1024.2 |
| 20260902235306 | 59 | 2 | 0.0 | 0.0 | 0.00 | 0.00 | 0.00 | 86 | 1024.2 |
| 20260902234805 | 59 | 3 | 0.0 | 0.0 | 0.00 | 0.00 | 0.00 | 86 | 1024.3 |
| 20260902234304 | 59 | 3 | 0.0 | 0.0 | 0.00 | 0.00 | 0.00 | 86 | 1024.3 |
| 20260902233305 | 59 | 3 | 0.0 | 0.0 | 0.00 | 0.00 | 0.00 | 86 | 1024.3 |
| 20260902232804 | 59 | 3 | 0.0 | 0.0 | 0.00 | 0.00 | 0.00 | 86 | 1024.3 |
| 20260902232306 | 59 | 3 | 0.0 | 0.0 | 0.00 | 0.00 | 0.00 | 86 | 1024.4 |
| 20260902231304 | 59 | 3 | 0.0 | 0.0 | 0.00 | 0.00 | 0.00 | 86 | 1024.3 |
| 20260902230816 | 59 | 3 | 0.0 | 0.0 | 0.00 | 0.00 | 0.00 | 86 | 1024.3 |
| 20260902230304 | 59 | 3 | 0.0 | 0.0 | 0.00 | 0.00 | 0.00 | 86 | 1024.3 |
| 20260902224304 | 59 | 2 | 0.0 | 0.0 | 0.00 | 0.00 | 0.00 | 86 | 1024.1 |
| 20260902223804 | 59 | 3 | 0.0 | 0.0 | 0.00 | 0.00 | 0.00 | 86 | 1024.1 |
| 20260902223304 | 59 | 3 | 0.0 | 0.0 | 0.00 | 0.00 | 0.00 | 86 | 1024.1 |
| 20260902222806 | 59 | 3 | 0.0 | 0.0 | 0.00 | 0.00 | 0.00 | 86 | 1024.1 |
| 20260902222306 | 59 | 1 | 0.0 | 0.0 | 0.00 | 0.00 | 0.00 | 86 | 1024.1 |
| 20260902221805 | 59 | 2 | 0.0 | 0.0 | 0.00 | 0.00 | 0.00 | 86 | 1024.0 |
| 20260902221305 | 59 | 3 | 0.0 | 0.0 | 0.00 | 0.00 | 0.00 | 86 | 1023.9 |
| 20260902220804 | 59 | 3 | 0.0 | 0.0 | 0.00 | 0.00 | 0.00 | 86 | 1023.9 |
| 20260902220306 | 59 | 3 | 0.0 | 0.0 | 0.00 | 0.00 | 0.00 | 86 | 1023.8 |
| 20260902215306 | 59 | 3 | 0.0 | 0.0 | 0.00 | 0.00 | 0.00 | 86 | 1023.8 |
| 20260902214805 | 59 | 3 | 0.0 | 0.0 | 0.00 | 0.00 | 0.00 | 86 | 1023.7 |
| 20260902214304 | 59 | 3 | 0.0 | 0.0 | 0.00 | 0.00 | 0.00 | 86 | 1023.6 |
| 20260902213805 | 59 | 3 | 0.0 | 0.0 | 0.00 | 0.00 | 0.00 | 86 | 1023.6 |
| 20260902213304 | 59 | 3 | 0.0 | 0.0 | 0.00 | 0.00 | 0.00 | 86 | 1023.6 |
| 20260902212805 | 59 | 3 | 0.0 | 0.0 | 0.00 | 0.00 | 0.00 | 86 | 1023.4 |
| 20260902212306 | 59 | 3 | 0.0 | 0.0 | 0.00 | 0.00 | 0.00 | 86 | 1023.4 |
| 20260902211305 | 59 | 3 | 0.0 | 0.0 | 0.00 | 0.00 | 0.00 | 86 | 1023.3 |
| 20260902210305 | 59 | 2 | 0.0 | 0.0 | 0.00 | 0.00 | 0.00 | 86 | 1023.2 |
| 20260902205805 | 59 | 3 | 0.0 | 0.0 | 0.00 | 0.00 | 0.00 | 86 | 1023.1 |
| 20260902205306 | 59 | 3 | 0.0 | 0.0 | 0.00 | 0.00 | 0.00 | 86 | 1023.0 |
| 20260902204804 | 59 | 3 | 0.0 | 0.0 | 0.00 | 0.00 | 0.00 | 86 | 1023.0 |
| 20260902204304 | 59 | 3 | 0.0 | 0.0 | 0.00 | 0.00 | 0.00 | 86 | 1022.9 |
| 20260902203304 | 59 | 3 | 0.0 | 0.0 | 0.00 | 0.00 | 0.00 | 86 | 1022.7 |
| 20260902202804 | 59 | 3 | 0.0 | 0.0 | 0.00 | 0.00 | 0.00 | 86 | 1022.7 |
| 20260902201805 | 59 | 3 | 0.0 | 0.0 | 0.00 | 0.00 | 0.00 | 86 | 1022.4 |
| 20260902201304 | 59 | 3 | 0.0 | 0.0 | 0.00 | 0.00 | 0.00 | 86 | 1022.4 |
| 20260902200804 | 59 | 3 | 0.0 | 0.0 | 0.00 | 0.00 | 0.00 | 86 | 1022.4 |
| 20260902200304 | 59 | 3 | 0.0 | 0.0 | 0.00 | 0.00 | 0.00 | 86 | 1022.3 |
| 20260902195804 | 59 | 3 | 0.0 | 0.0 | 0.00 | 0.00 | 0.00 | 86 | 1022.4 |
| 20260902195306 | 59 | 3 | 0.0 | 0.0 | 0.00 | 0.00 | 0.00 | 86 | 1022.3 |
| 20260902194804 | 59 | 3 | 0.0 | 0.0 | 0.00 | 0.00 | 0.00 | 86 | 1022.2 |
| 20260902194304 | 59 | 3 | 0.0 | 0.0 | 0.00 | 0.00 | 0.00 | 86 | 1022.2 |
| 20260902193804 | 59 | 3 | 0.0 | 0.0 | 0.00 | 0.00 | 0.00 | 86 | 1022.2 |
| 20260902193304 | 59 | 3 | 0.0 | 0.0 | 0.00 | 0.00 | 0.00 | 86 | 1022.1 |
| 20260902192805 | 59 | 3 | 0.0 | 0.0 | 0.00 | 0.00 | 0.00 | 86 | 1022.0 |
| 20260902192307 | 59 | 3 | 0.0 | 0.0 | 0.00 | 0.00 | 0.00 | 86 | 1022.0 |
| 20260902191805 | 59 | 3 | 0.0 | 0.0 | 0.00 | 0.00 | 0.00 | 86 | 1021.9 |
| 20260902191304 | 59 | 3 | 0.0 | 0.0 | 0.00 | 0.00 | 0.00 | 86 | 1021.8 |
| 20260902190804 | 59 | 3 | 0.0 | 0.0 | 0.00 | 0.00 | 0.00 | 86 | 1021.8 |
| 20260902190306 | 59 | 2 | 0.0 | 0.0 | 0.00 | 0.00 | 0.00 | 86 | 1021.8 |
| 20260902185804 | 59 | 3 | 0.0 | 0.0 | 0.00 | 0.00 | 0.00 | 86 | 1021.8 |
| 20260902185307 | 59 | 3 | 0.0 | 0.0 | 0.00 | 0.00 | 0.00 | 86 | 1021.7 |
| 20260902184304 | 59 | 3 | 0.0 | 0.0 | 0.00 | 0.00 | 0.00 | 86 | 1021.6 |
| 20260902183806 | 59 | 3 | 0.0 | 0.0 | 0.00 | 0.00 | 0.00 | 86 | 1021.6 |
| 20260902181805 | 59 | 3 | 0.0 | 0.0 | 0.00 | 0.00 | 0.00 | 86 | 1021.3 |
| 20260902180805 | 59 | 3 | 0.0 | 0.0 | 0.00 | 0.00 | 0.00 | 86 | 1021.2 |
| 20260902180304 | 59 | 3 | 0.0 | 0.0 | 0.00 | 0.00 | 0.00 | 86 | 1021.1 |
| 20260902175804 | 59 | 3 | 0.0 | 0.0 | 0.00 | 0.00 | 0.00 | 86 | 1021.2 |
| 20260902175307 | 59 | 3 | 0.0 | 0.0 | 0.00 | 0.00 | 0.00 | 86 | 1021.1 |
| 20260902174304 | 59 | 3 | 0.0 | 0.0 | 0.00 | 0.00 | 0.00 | 86 | 1021.2 |
| 20260902173804 | 59 | 3 | 0.0 | 0.0 | 0.00 | 0.00 | 0.00 | 86 | 1021.2 |
| 20260902173305 | 59 | 3 | 0.0 | 0.0 | 0.00 | 0.00 | 0.00 | 86 | 1021.2 |
| 20260902172804 | 59 | 3 | 0.0 | 0.0 | 0.00 | 0.00 | 0.00 | 86 | 1021.2 |
| 20260902172308 | 59 | 4 | 0.0 | 0.0 | 0.00 | 0.00 | 0.00 | 86 | 1021.2 |
| 20260902171805 | 59 | 3 | 0.0 | 0.0 | 0.00 | 0.00 | 0.00 | 86 | 1021.2 |
| 20260902171305 | 59 | 3 | 0.0 | 0.0 | 0.00 | 0.00 | 0.00 | 86 | 1021.2 |
| 20260902170804 | 59 | 3 | 0.0 | 0.0 | 0.00 | 0.00 | 0.00 | 86 | 1021.2 |
| 20260902170305 | 59 | 3 | 0.0 | 0.0 | 0.00 | 0.00 | 0.00 | 86 | 1021.2 |
| 20260902165805 | 59 | 3 | 0.0 | 0.0 | 0.00 | 0.00 | 0.00 | 86 | 1021.2 |
| 20260902164804 | 59 | 3 | 0.0 | 0.0 | 0.00 | 0.00 | 0.00 | 86 | 1021.2 |
| 20260902164305 | 59 | 3 | 0.0 | 0.0 | 0.00 | 0.00 | 0.00 | 86 | 1021.2 |
| 20260902163305 | 59 | 6 | 0.0 | 1.0 | 0.00 | 0.00 | 0.00 | 86 | 1021.4 |
| 20260902162804 | 59 | 121 | 1.0 | 1.0 | 0.00 | 0.00 | 0.00 | 86 | 1021.4 |
| 20260902162307 | 59 | 121 | 1.0 | 7.0 | 0.00 | 0.00 | 0.00 | 86 | 1021.3 |
| 20260902161804 | 59 | 119 | 2.0 | 7.0 | 0.00 | 0.00 | 0.00 | 86 | 1021.3 |
| 20260902161304 | 59 | 119 | 2.0 | 5.0 | 0.00 | 0.00 | 0.00 | 86 | 1021.3 |
| 20260902160804 | 60 | 117 | 3.0 | 6.0 | 0.00 | 0.00 | 0.00 | 86 | 1021.3 |
| 20260902160305 | 60 | 117 | 2.0 | 6.0 | 0.00 | 0.00 | 0.00 | 86 | 1021.3 |
| 20260902155804 | 60 | 116 | 3.0 | 6.0 | 0.00 | 0.00 | 0.00 | 86 | 1021.4 |
| 20260902155307 | 60 | 120 | 4.0 | 7.0 | 0.00 | 0.00 | 0.00 | 86 | 1021.4 |
| 20260902154805 | 60 | 115 | 3.0 | 7.0 | 0.00 | 0.00 | 0.00 | 86 | 1021.4 |
| 20260902154305 | 60 | 116 | 3.0 | 7.0 | 0.00 | 0.00 | 0.00 | 86 | 1021.5 |
| 20260902153805 | 60 | 115 | 3.0 | 7.0 | 0.00 | 0.00 | 0.00 | 85 | 1021.5 |
| 20260902152804 | 60 | 117 | 3.0 | 7.0 | 0.00 | 0.00 | 0.00 | 85 | 1021.5 |
| 20260902152307 | 60 | 117 | 3.0 | 8.0 | 0.00 | 0.00 | 0.00 | 85 | 1021.5 |
| 20260902151806 | 60 | 114 | 3.0 | 7.0 | 0.00 | 0.00 | 0.00 | 85 | 1021.6 |
| 20260902151304 | 60 | 114 | 3.0 | 8.0 | 0.00 | 0.00 | 0.00 | 85 | 1021.6 |
| 20260902150804 | 60 | 115 | 2.0 | 6.0 | 0.00 | 0.00 | 0.00 | 85 | 1021.7 |
| 20260902145805 | 60 | 115 | 2.0 | 6.0 | 0.00 | 0.00 | 0.00 | 85 | 1021.9 |
| 20260902145306 | 60 | 116 | 3.0 | 7.0 | 0.00 | 0.00 | 0.00 | 85 | 1021.9 |
| 20260902144304 | 60 | 121 | 2.0 | 3.0 | 0.00 | 0.00 | 0.00 | 85 | 1022.0 |
| 20260902143805 | 60 | 121 | 2.0 | 5.0 | 0.00 | 0.00 | 0.00 | 85 | 1022.1 |
| 20260902143304 | 60 | 121 | 2.0 | 7.0 | 0.00 | 0.00 | 0.00 | 85 | 1022.1 |
| 20260902142804 | 60 | 121 | 2.0 | 5.0 | 0.00 | 0.00 | 0.00 | 85 | 1022.1 |
| 20260902142306 | 60 | 114 | 3.0 | 8.0 | 0.00 | 0.00 | 0.00 | 85 | 1022.2 |
| 20260902141804 | 60 | 107 | 3.0 | 7.0 | 0.00 | 0.00 | 0.00 | 85 | 1022.2 |
| 20260902141305 | 60 | 124 | 3.0 | 5.0 | 0.00 | 0.00 | 0.00 | 85 | 1022.2 |
| 20260902140805 | 61 | 124 | 3.0 | 9.0 | 0.00 | 0.00 | 0.00 | 85 | 1022.2 |
| 20260902140305 | 61 | 116 | 3.0 | 8.0 | 0.00 | 0.00 | 0.00 | 85 | 1022.2 |
| 20260902135805 | 61 | 123 | 2.0 | 8.0 | 0.00 | 0.00 | 0.00 | 85 | 1022.2 |
| 20260902135307 | 61 | 116 | 3.0 | 6.0 | 0.00 | 0.00 | 0.00 | 85 | 1022.3 |
| 20260902134804 | 61 | 112 | 2.0 | 8.0 | 0.00 | 0.00 | 0.00 | 84 | 1022.3 |
| 20260902134304 | 61 | 115 | 2.0 | 6.0 | 0.00 | 0.00 | 0.00 | 84 | 1022.4 |
| 20260902133804 | 61 | 111 | 3.0 | 8.0 | 0.00 | 0.00 | 0.00 | 84 | 1022.4 |
| 20260902132306 | 61 | 124 | 3.0 | 7.0 | 0.00 | 0.00 | 0.00 | 84 | 1022.5 |
| 20260902131804 | 61 | 120 | 3.0 | 7.0 | 0.00 | 0.00 | 0.00 | 84 | 1022.5 |
| 20260902131304 | 61 | 114 | 3.0 | 7.0 | 0.00 | 0.00 | 0.00 | 84 | 1022.6 |
| 20260902130804 | 61 | 112 | 2.0 | 7.0 | 0.00 | 0.00 | 0.00 | 84 | 1022.6 |
| 20260902130304 | 61 | 113 | 5.0 | 8.0 | 0.00 | 0.00 | 0.00 | 84 | 1022.7 |
| 20260902125804 | 61 | 116 | 3.0 | 6.0 | 0.00 | 0.00 | 0.00 | 84 | 1022.7 |
| 20260902125306 | 61 | 112 | 3.0 | 6.0 | 0.00 | 0.00 | 0.00 | 84 | 1022.7 |
| 20260902124804 | 61 | 117 | 1.0 | 7.0 | 0.00 | 0.00 | 0.00 | 84 | 1022.7 |
| 20260902124305 | 61 | 120 | 3.0 | 7.0 | 0.00 | 0.00 | 0.00 | 84 | 1022.6 |
| 20260902123804 | 61 | 121 | 4.0 | 7.0 | 0.00 | 0.00 | 0.00 | 84 | 1022.7 |
| 20260902123304 | 61 | 123 | 3.0 | 8.0 | 0.00 | 0.00 | 0.00 | 84 | 1022.7 |
| 20260902122804 | 61 | 114 | 4.0 | 9.0 | 0.00 | 0.00 | 0.00 | 84 | 1022.7 |
| 20260902122305 | 62 | 109 | 3.0 | 8.0 | 0.00 | 0.00 | 0.00 | 84 | 1022.7 |
| 20260902121804 | 62 | 115 | 3.0 | 8.0 | 0.00 | 0.00 | 0.00 | 84 | 1022.7 |
| 20260902121305 | 62 | 116 | 4.0 | 8.0 | 0.00 | 0.00 | 0.00 | 84 | 1022.7 |
| 20260902120305 | 62 | 115 | 6.0 | 10.0 | 0.00 | 0.00 | 0.00 | 83 | 1022.6 |
| 20260902115805 | 62 | 144 | 4.0 | 12.0 | 0.00 | 0.00 | 0.00 | 83 | 1022.5 |
| 20260902115307 | 62 | 106 | 5.0 | 7.0 | 0.00 | 0.00 | 0.00 | 83 | 1022.5 |
| 20260902114804 | 62 | 110 | 5.0 | 9.0 | 0.00 | 0.00 | 0.00 | 83 | 1022.4 |
| 20260902114304 | 62 | 129 | 5.0 | 9.0 | 0.00 | 0.00 | 0.00 | 83 | 1022.5 |
| 20260902113804 | 62 | 120 | 5.0 | 8.0 | 0.00 | 0.00 | 0.00 | 83 | 1022.4 |
| 20260902113304 | 62 | 114 | 3.0 | 8.0 | 0.00 | 0.00 | 0.00 | 83 | 1022.4 |
| 20260902112805 | 62 | 109 | 6.0 | 8.0 | 0.00 | 0.00 | 0.00 | 83 | 1022.3 |
| 20260902112306 | 62 | 111 | 3.0 | 6.0 | 0.00 | 0.00 | 0.00 | 83 | 1022.3 |
| 20260902111305 | 62 | 118 | 4.0 | 7.0 | 0.00 | 0.00 | 0.00 | 83 | 1022.2 |
| 20260902110805 | 62 | 118 | 3.0 | 7.0 | 0.00 | 0.00 | 0.00 | 82 | 1022.2 |
| 20260902105306 | 62 | 76 | 2.0 | 5.0 | 0.00 | 0.00 | 0.00 | 82 | 1022.1 |
| 20260902104805 | 63 | 71 | 2.0 | 5.0 | 0.00 | 0.00 | 0.00 | 82 | 1022.1 |
| 20260902104304 | 63 | 71 | 1.0 | 3.0 | 0.00 | 0.00 | 0.00 | 82 | 1022.1 |
| 20260902103805 | 63 | 71 | 2.0 | 5.0 | 0.00 | 0.00 | 0.00 | 81 | 1022.1 |
| 20260902103305 | 63 | 67 | 2.0 | 3.0 | 0.00 | 0.00 | 0.00 | 81 | 1022.0 |